Time,TemperatureF,DewpointF,PressureIn,WindDirection,WindDirectionDegrees,WindSpeedMPH,WindSpeedGustMPH,Humidity,HourlyPrecipIn,Conditions,Clouds,dailyrainin,SoftwareType,DateUTC
2013-09-22 00:03:00,52.3,48.0,29.94,West,270,0.0,0.0,85,0.00,,,0.00,meteohub,2013-09-22 05:03:00,
2013-09-22 00:08:00,52.3,48.0,29.94,West,270,0.0,0.0,85,0.00,,,0.00,meteohub,2013-09-22 05:08:00,
2013-09-22 00:13:00,52.2,47.8,29.94,South,180,0.0,0.0,85,0.00,,,0.00,meteohub,2013-09-22 05:13:00,
2013-09-22 00:18:00,52.2,47.8,29.94,South,180,0.0,0.0,85,0.00,,,0.00,meteohub,2013-09-22 05:18:00,
2013-09-22 00:24:00,52.0,47.8,29.94,WSW,248,0.0,0.0,86,0.00,,,0.00,meteohub,2013-09-22 05:24:00,
2013-09-22 00:29:00,51.8,47.7,29.94,ESE,113,0.0,0.0,86,0.00,,,0.00,meteohub,2013-09-22 05:29:00,
2013-09-22 00:34:00,52.0,47.8,29.94,NW,315,0.0,0.0,86,0.00,,,0.00,meteohub,2013-09-22 05:34:00,
2013-09-22 00:39:00,51.4,47.5,29.94,South,180,0.0,0.0,86,0.00,,,0.00,meteohub,2013-09-22 05:39:00,
2013-09-22 00:44:00,51.6,47.5,29.94,South,180,0.0,0.0,86,0.00,,,0.00,meteohub,2013-09-22 05:44:00,
2013-09-22 00:49:00,51.3,47.3,29.94,SE,135,0.0,0.0,86,0.00,,,0.00,meteohub,2013-09-22 05:49:00,
2013-09-22 00:54:00,51.3,47.3,29.94,South,180,0.0,0.0,86,0.00,,,0.00,meteohub,2013-09-22 05:54:00,
2013-09-22 00:59:00,51.3,47.3,29.94,South,180,0.0,0.0,86,0.00,,,0.00,meteohub,2013-09-22 05:59:00,
2013-09-22 01:04:00,50.9,46.9,29.94,SSE,158,0.0,0.0,86,0.00,,,0.00,meteohub,2013-09-22 06:04:00,
2013-09-22 01:09:00,50.7,46.8,29.95,ESE,113,0.0,0.0,86,0.00,,,0.00,meteohub,2013-09-22 06:09:00,
2013-09-22 01:14:00,50.9,46.9,29.94,ENE,68,0.0,0.0,86,0.00,,,0.00,meteohub,2013-09-22 06:14:00,
2013-09-22 01:19:00,50.5,46.6,29.95,SSW,203,0.0,0.0,86,0.00,,,0.00,meteohub,2013-09-22 06:19:00,
2013-09-22 01:24:00,50.4,46.4,29.95,South,180,0.0,0.0,86,0.00,,,0.00,meteohub,2013-09-22 06:24:00,
2013-09-22 01:29:00,50.5,46.6,29.95,WSW,248,0.0,0.0,86,0.00,,,0.00,meteohub,2013-09-22 06:29:00,
2013-09-22 01:34:00,50.5,46.8,29.95,South,180,0.0,0.0,87,0.00,,,0.00,meteohub,2013-09-22 06:34:00,
2013-09-22 01:39:00,50.2,46.4,29.95,South,180,0.0,0.0,87,0.00,,,0.00,meteohub,2013-09-22 06:39:00,
2013-09-22 01:44:00,50.0,46.2,29.95,South,180,0.0,0.0,87,0.00,,,0.00,meteohub,2013-09-22 06:44:00,
2013-09-22 01:49:00,50.0,46.2,29.94,South,180,0.0,0.0,87,0.00,,,0.00,meteohub,2013-09-22 06:49:00,
2013-09-22 01:54:00,49.8,46.0,29.94,SW,225,0.0,0.0,87,0.00,,,0.00,meteohub,2013-09-22 06:54:00,
2013-09-22 01:59:00,49.8,46.0,29.94,SSE,158,0.0,0.0,87,0.00,,,0.00,meteohub,2013-09-22 06:59:00,
2013-09-22 02:04:00,49.6,45.9,29.94,SSE,158,0.0,0.0,87,0.00,,,0.00,meteohub,2013-09-22 07:04:00,
2013-09-22 02:09:00,49.8,46.0,29.94,SW,225,0.0,0.0,87,0.00,,,0.00,meteohub,2013-09-22 07:09:00,
2013-09-22 02:14:00,49.5,45.7,29.94,SW,225,0.0,0.0,87,0.00,,,0.00,meteohub,2013-09-22 07:14:00,
2013-09-22 02:19:00,49.3,45.5,29.94,South,180,0.0,0.0,87,0.00,,,0.00,meteohub,2013-09-22 07:19:00,
2013-09-22 02:24:00,49.3,45.5,29.94,WSW,248,0.0,0.0,87,0.00,,,0.00,meteohub,2013-09-22 07:24:00,
2013-09-22 02:29:00,49.3,45.5,29.94,ESE,113,0.0,0.0,87,0.00,,,0.00,meteohub,2013-09-22 07:29:00,
2013-09-22 02:34:00,49.1,45.3,29.94,WSW,248,0.0,0.0,87,0.00,,,0.00,meteohub,2013-09-22 07:34:00,
2013-09-22 02:39:00,49.1,45.3,29.94,ESE,113,0.0,0.0,87,0.00,,,0.00,meteohub,2013-09-22 07:39:00,
2013-09-22 02:44:00,49.1,45.3,29.94,South,180,0.0,0.0,87,0.00,,,0.00,meteohub,2013-09-22 07:44:00,
2013-09-22 02:49:00,48.7,45.0,29.94,ENE,68,0.0,0.0,87,0.00,,,0.00,meteohub,2013-09-22 07:49:00,
2013-09-22 02:54:00,48.7,45.0,29.94,SW,225,0.0,0.0,87,0.00,,,0.00,meteohub,2013-09-22 07:54:00,
2013-09-22 02:59:00,48.7,45.0,29.94,ESE,113,0.0,0.0,87,0.00,,,0.00,meteohub,2013-09-22 07:59:00,
2013-09-22 03:04:00,48.6,44.8,29.94,SSE,158,0.0,0.0,87,0.00,,,0.00,meteohub,2013-09-22 08:04:00,
2013-09-22 03:10:00,48.6,44.8,29.94,WSW,248,0.0,0.0,87,0.00,,,0.00,meteohub,2013-09-22 08:10:00,
2013-09-22 03:14:00,48.6,44.8,29.94,WSW,248,0.0,0.0,87,0.00,,,0.00,meteohub,2013-09-22 08:14:00,
2013-09-22 03:20:00,48.4,45.0,29.94,SSW,203,0.0,0.0,88,0.00,,,0.00,meteohub,2013-09-22 08:20:00,
2013-09-22 03:25:00,48.4,44.8,29.94,SSE,158,0.0,0.0,87,0.00,,,0.00,meteohub,2013-09-22 08:25:00,
2013-09-22 03:30:00,48.2,44.8,29.94,West,270,0.0,0.0,88,0.00,,,0.00,meteohub,2013-09-22 08:30:00,
2013-09-22 03:35:00,48.0,44.6,29.94,West,270,0.0,0.0,88,0.00,,,0.00,meteohub,2013-09-22 08:35:00,
2013-09-22 03:40:00,48.0,44.6,29.94,West,270,0.0,0.0,88,0.00,,,0.00,meteohub,2013-09-22 08:40:00,
2013-09-22 03:45:00,48.0,44.6,29.94,SE,135,0.0,0.0,88,0.00,,,0.00,meteohub,2013-09-22 08:45:00,
2013-09-22 03:50:00,47.8,44.4,29.94,West,270,0.0,0.0,88,0.00,,,0.00,meteohub,2013-09-22 08:50:00,
2013-09-22 03:55:00,47.8,44.4,29.94,SSE,158,0.0,0.0,88,0.00,,,0.00,meteohub,2013-09-22 08:55:00,
2013-09-22 04:00:00,47.8,44.4,29.94,South,180,0.0,0.0,88,0.00,,,0.00,meteohub,2013-09-22 09:00:00,
2013-09-22 04:05:00,47.7,44.2,29.94,WSW,248,0.0,0.0,88,0.00,,,0.00,meteohub,2013-09-22 09:05:00,
2013-09-22 04:10:00,47.7,44.2,29.94,ESE,113,0.0,0.0,88,0.00,,,0.00,meteohub,2013-09-22 09:10:00,
2013-09-22 04:15:00,47.7,44.2,29.94,WSW,248,0.0,0.0,88,0.00,,,0.00,meteohub,2013-09-22 09:15:00,
2013-09-22 04:20:00,47.5,44.1,29.95,WSW,248,0.0,0.0,88,0.00,,,0.00,meteohub,2013-09-22 09:20:00,
2013-09-22 04:25:00,47.3,43.9,29.95,SE,135,0.0,0.0,88,0.00,,,0.00,meteohub,2013-09-22 09:25:00,
2013-09-22 04:30:00,47.3,43.9,29.95,SE,135,0.0,0.0,88,0.00,,,0.00,meteohub,2013-09-22 09:30:00,
2013-09-22 04:35:00,47.1,43.7,29.95,South,180,0.0,0.0,88,0.00,,,0.00,meteohub,2013-09-22 09:35:00,
2013-09-22 04:40:00,47.1,43.7,29.95,South,180,0.0,0.0,88,0.00,,,0.00,meteohub,2013-09-22 09:40:00,
2013-09-22 04:45:00,47.3,43.9,29.95,West,270,0.0,0.0,88,0.00,,,0.00,meteohub,2013-09-22 09:45:00,
2013-09-22 04:50:00,47.1,43.7,29.95,WSW,248,0.0,0.0,88,0.00,,,0.00,meteohub,2013-09-22 09:50:00,
2013-09-22 04:55:00,46.9,43.5,29.95,West,270,0.0,0.0,88,0.00,,,0.00,meteohub,2013-09-22 09:55:00,
2013-09-22 05:00:00,46.9,43.5,29.95,West,270,0.0,0.0,88,0.00,,,0.00,meteohub,2013-09-22 10:00:00,
2013-09-22 05:05:00,46.9,43.9,29.95,WSW,248,0.0,0.0,89,0.00,,,0.00,meteohub,2013-09-22 10:05:00,
2013-09-22 05:10:00,46.9,43.9,29.96,WSW,248,0.0,0.0,89,0.00,,,0.00,meteohub,2013-09-22 10:10:00,
2013-09-22 05:15:00,46.9,43.9,29.96,SSE,158,0.0,0.0,89,0.00,,,0.00,meteohub,2013-09-22 10:15:00,
2013-09-22 05:20:00,46.6,43.5,29.96,South,180,0.0,0.0,89,0.00,,,0.00,meteohub,2013-09-22 10:20:00,
2013-09-22 05:25:00,46.6,43.5,29.96,ESE,113,0.0,0.0,89,0.00,,,0.00,meteohub,2013-09-22 10:25:00,
2013-09-22 05:30:00,46.4,43.3,29.95,ESE,113,0.0,0.0,89,0.00,,,0.00,meteohub,2013-09-22 10:30:00,
2013-09-22 05:35:00,46.4,43.3,29.95,WSW,248,0.0,0.0,89,0.00,,,0.00,meteohub,2013-09-22 10:35:00,
2013-09-22 05:40:00,46.4,43.3,29.95,West,270,0.0,0.0,89,0.00,,,0.00,meteohub,2013-09-22 10:40:00,
2013-09-22 05:45:00,46.4,43.3,29.95,West,270,0.0,0.0,89,0.00,,,0.00,meteohub,2013-09-22 10:45:00,
2013-09-22 05:50:00,46.2,43.2,29.96,West,270,0.0,0.0,89,0.00,,,0.00,meteohub,2013-09-22 10:50:00,
2013-09-22 06:04:00,46.2,43.2,29.96,WSW,248,0.0,0.0,89,0.00,,,0.00,meteohub,2013-09-22 11:04:00,
2013-09-22 06:09:00,46.0,43.0,29.96,WSW,248,0.0,0.0,89,0.00,,,0.00,meteohub,2013-09-22 11:09:00,
2013-09-22 06:14:00,45.9,42.8,29.96,West,270,0.0,0.0,89,0.00,,,0.00,meteohub,2013-09-22 11:14:00,
2013-09-22 06:19:00,45.9,42.8,29.96,East,90,0.0,0.0,89,0.00,,,0.00,meteohub,2013-09-22 11:19:00,
2013-09-22 06:24:00,45.7,42.6,29.96,ESE,113,0.0,0.0,89,0.00,,,0.00,meteohub,2013-09-22 11:24:00,
2013-09-22 06:29:00,45.7,42.6,29.96,ESE,113,0.0,0.0,89,0.00,,,0.00,meteohub,2013-09-22 11:29:00,
2013-09-22 06:34:00,45.7,42.6,29.96,ENE,68,0.0,0.0,89,0.00,,,0.00,meteohub,2013-09-22 11:34:00,
2013-09-22 06:39:00,45.7,42.6,29.96,ESE,113,0.0,0.0,89,0.00,,,0.00,meteohub,2013-09-22 11:39:00,
2013-09-22 06:44:00,45.7,42.6,29.96,SE,135,0.0,0.0,89,0.00,,,0.00,meteohub,2013-09-22 11:44:00,
2013-09-22 06:49:00,45.7,42.6,29.95,West,270,0.0,0.0,89,0.00,,,0.00,meteohub,2013-09-22 11:49:00,
2013-09-22 06:54:00,45.7,42.6,29.95,West,270,0.0,0.0,89,0.00,,,0.00,meteohub,2013-09-22 11:54:00,
2013-09-22 06:59:00,45.5,42.4,29.96,West,270,0.0,0.0,89,0.00,,,0.00,meteohub,2013-09-22 11:59:00,
2013-09-22 07:04:00,45.5,42.4,29.96,West,270,0.0,0.0,89,0.00,,,0.00,meteohub,2013-09-22 12:04:00,
2013-09-22 07:09:00,45.5,42.4,29.96,West,270,0.0,0.0,89,0.00,,,0.00,meteohub,2013-09-22 12:09:00,
2013-09-22 07:14:00,45.3,42.3,29.96,West,270,0.0,0.0,89,0.00,,,0.00,meteohub,2013-09-22 12:14:00,
2013-09-22 07:19:00,45.5,42.4,29.96,West,270,0.0,0.0,89,0.00,,,0.00,meteohub,2013-09-22 12:19:00,
2013-09-22 07:24:00,45.1,42.1,29.96,ESE,113,0.0,0.0,89,0.00,,,0.00,meteohub,2013-09-22 12:24:00,
2013-09-22 07:29:00,45.3,42.3,29.96,West,270,0.0,0.0,89,0.00,,,0.00,meteohub,2013-09-22 12:29:00,
2013-09-22 07:34:00,45.3,42.3,29.96,West,270,0.0,0.0,89,0.00,,,0.00,meteohub,2013-09-22 12:34:00,
2013-09-22 07:39:00,45.5,42.8,29.96,West,270,0.0,0.0,90,0.00,,,0.00,meteohub,2013-09-22 12:39:00,
2013-09-22 07:44:00,45.5,42.8,29.96,West,270,0.0,0.0,90,0.00,,,0.00,meteohub,2013-09-22 12:44:00,
2013-09-22 07:49:00,45.7,43.0,29.98,West,270,0.0,0.0,90,0.00,,,0.00,meteohub,2013-09-22 12:49:00,
2013-09-22 07:56:00,45.9,43.2,29.98,SW,225,0.0,0.0,90,0.00,,,0.00,meteohub,2013-09-22 12:56:00,
2013-09-22 08:01:00,46.0,43.3,29.97,SW,225,0.0,0.0,90,0.00,,,0.00,meteohub,2013-09-22 13:01:00,
2013-09-22 08:06:00,46.4,43.7,29.97,WSW,248,0.0,0.0,90,0.00,,,0.00,meteohub,2013-09-22 13:06:00,
2013-09-22 08:11:00,46.6,44.1,29.97,WNW,293,0.0,0.0,91,0.00,,,0.00,meteohub,2013-09-22 13:11:00,
2013-09-22 08:16:00,47.3,44.8,29.97,NW,315,0.0,0.0,91,0.00,,,0.00,meteohub,2013-09-22 13:16:00,
2013-09-22 08:21:00,47.7,45.1,29.97,WNW,293,0.0,0.0,91,0.00,,,0.00,meteohub,2013-09-22 13:21:00,
2013-09-22 08:26:00,48.0,45.5,29.96,WNW,293,0.0,0.0,91,0.00,,,0.00,meteohub,2013-09-22 13:26:00,
2013-09-22 08:31:00,48.7,46.2,29.97,West,270,0.0,0.0,91,0.00,,,0.00,meteohub,2013-09-22 13:31:00,
2013-09-22 08:36:00,49.1,46.6,29.97,West,270,0.0,0.0,91,0.00,,,0.00,meteohub,2013-09-22 13:36:00,
2013-09-22 08:41:00,49.5,46.9,29.97,NW,315,0.0,0.0,91,0.00,,,0.00,meteohub,2013-09-22 13:41:00,
2013-09-22 08:46:00,50.0,47.8,29.97,West,270,0.0,0.0,92,0.00,,,0.00,meteohub,2013-09-22 13:46:00,
2013-09-22 08:51:00,50.7,48.6,29.97,West,270,0.0,0.0,92,0.00,,,0.00,meteohub,2013-09-22 13:51:00,
2013-09-22 08:56:00,51.3,49.1,29.97,South,180,0.0,0.0,92,0.00,,,0.00,meteohub,2013-09-22 13:56:00,
2013-09-22 09:01:00,52.0,49.6,29.97,NE,45,0.0,0.0,92,0.00,,,0.00,meteohub,2013-09-22 14:01:00,
2013-09-22 09:06:00,52.7,50.4,29.97,ESE,113,0.0,0.0,92,0.00,,,0.00,meteohub,2013-09-22 14:06:00,
2013-09-22 09:11:00,53.8,51.4,29.97,East,90,0.0,0.0,92,0.00,,,0.00,meteohub,2013-09-22 14:11:00,
2013-09-22 09:16:00,54.7,52.3,29.96,SE,135,0.0,0.0,92,0.00,,,0.00,meteohub,2013-09-22 14:16:00,
2013-09-22 09:21:00,56.1,53.6,29.96,NE,45,0.0,0.0,91,0.00,,,0.00,meteohub,2013-09-22 14:21:00,
2013-09-22 09:26:00,56.8,54.3,29.96,ENE,68,0.0,0.0,91,0.00,,,0.00,meteohub,2013-09-22 14:26:00,
2013-09-22 09:31:00,58.5,54.9,29.96,East,90,0.0,0.0,88,0.00,,,0.00,meteohub,2013-09-22 14:31:00,
2013-09-22 09:36:00,59.2,55.4,29.95,SE,135,0.0,0.0,87,0.00,,,0.00,meteohub,2013-09-22 14:36:00,
2013-09-22 09:41:00,60.1,55.2,29.95,West,270,0.0,0.0,84,0.00,,,0.00,meteohub,2013-09-22 14:41:00,
2013-09-22 09:46:00,60.6,55.8,29.95,SE,135,0.0,0.0,84,0.00,,,0.00,meteohub,2013-09-22 14:46:00,
2013-09-22 09:51:00,61.0,55.0,29.95,ESE,113,0.0,0.0,81,0.00,,,0.00,meteohub,2013-09-22 14:51:00,
2013-09-22 09:56:00,61.5,54.3,29.95,ESE,113,2.0,2.0,77,0.00,,,0.00,meteohub,2013-09-22 14:56:00,
2013-09-22 10:01:00,62.2,54.5,29.95,ESE,113,0.0,2.0,76,0.00,,,0.00,meteohub,2013-09-22 15:01:00,
2013-09-22 10:06:00,62.8,54.7,29.95,East,90,0.0,2.0,75,0.00,,,0.00,meteohub,2013-09-22 15:06:00,
2013-09-22 10:11:00,63.1,55.0,29.95,SSE,158,0.0,2.0,75,0.00,,,0.00,meteohub,2013-09-22 15:11:00,
2013-09-22 10:16:00,63.3,54.5,29.95,SE,135,0.0,0.0,73,0.00,,,0.00,meteohub,2013-09-22 15:16:00,
2013-09-22 10:21:00,64.0,54.9,29.95,ESE,113,0.0,0.0,72,0.00,,,0.00,meteohub,2013-09-22 15:21:00,
2013-09-22 10:26:00,64.2,55.0,29.95,SSE,158,0.0,0.0,72,0.00,,,0.00,meteohub,2013-09-22 15:26:00,
2013-09-22 10:31:00,64.6,54.1,29.94,ESE,113,0.0,0.0,69,0.00,,,0.00,meteohub,2013-09-22 15:31:00,
2013-09-22 10:36:00,64.8,53.6,29.94,ESE,113,0.0,0.0,67,0.00,,,0.00,meteohub,2013-09-22 15:36:00,
2013-09-22 10:41:00,65.1,52.7,29.94,ESE,113,3.0,4.0,64,0.00,,,0.00,meteohub,2013-09-22 15:41:00,
2013-09-22 10:46:00,65.5,53.1,29.94,NW,315,2.0,4.0,64,0.00,,,0.00,meteohub,2013-09-22 15:46:00,
2013-09-22 10:51:00,65.7,53.2,29.94,ESE,113,2.0,4.0,64,0.00,,,0.00,meteohub,2013-09-22 15:51:00,
2013-09-22 10:56:00,65.8,52.9,29.94,ENE,68,2.0,3.0,63,0.00,,,0.00,meteohub,2013-09-22 15:56:00,
2013-09-22 11:01:00,66.2,52.9,29.94,ESE,113,3.0,3.0,62,0.00,,,0.00,meteohub,2013-09-22 16:01:00,
2013-09-22 11:07:00,66.4,52.9,29.94,ESE,113,0.0,3.0,62,0.00,,,0.00,meteohub,2013-09-22 16:07:00,
2013-09-22 11:12:00,66.6,53.6,29.94,East,90,0.0,3.0,63,0.00,,,0.00,meteohub,2013-09-22 16:12:00,
2013-09-22 11:17:00,66.7,53.8,29.94,SE,135,0.0,3.0,63,0.00,,,0.00,meteohub,2013-09-22 16:17:00,
2013-09-22 11:22:00,67.1,53.2,29.94,ESE,113,0.0,3.0,61,0.00,,,0.00,meteohub,2013-09-22 16:22:00,
2013-09-22 11:27:00,67.1,53.6,29.95,SE,135,0.0,3.0,62,0.00,,,0.00,meteohub,2013-09-22 16:27:00,
2013-09-22 11:32:00,67.3,54.3,29.95,SE,135,0.0,3.0,63,0.00,,,0.00,meteohub,2013-09-22 16:32:00,
2013-09-22 11:37:00,67.5,53.1,29.95,ESE,113,0.0,3.0,60,0.00,,,0.00,meteohub,2013-09-22 16:37:00,
2013-09-22 11:42:00,67.8,54.0,29.95,ESE,113,2.0,2.0,61,0.00,,,0.00,meteohub,2013-09-22 16:42:00,
2013-09-22 11:47:00,67.6,53.8,29.98,ENE,68,0.0,2.0,61,0.00,,,0.00,meteohub,2013-09-22 16:47:00,
2013-09-22 11:52:00,67.8,54.0,29.98,SE,135,0.0,3.0,61,0.00,,,0.00,meteohub,2013-09-22 16:52:00,
2013-09-22 11:57:00,68.0,54.0,29.98,South,180,0.0,3.0,61,0.00,,,0.00,meteohub,2013-09-22 16:57:00,
2013-09-22 12:02:00,67.8,54.3,29.98,ESE,113,3.0,5.0,62,0.00,,,0.00,meteohub,2013-09-22 17:02:00,
2013-09-22 12:07:00,67.6,53.2,29.98,ESE,113,3.0,5.0,60,0.00,,,0.00,meteohub,2013-09-22 17:07:00,
2013-09-22 12:12:00,67.6,53.2,29.97,ESE,113,3.0,5.0,60,0.00,,,0.00,meteohub,2013-09-22 17:12:00,
2013-09-22 12:17:00,68.0,52.2,29.97,East,90,2.0,4.0,57,0.00,,,0.00,meteohub,2013-09-22 17:17:00,
2013-09-22 12:22:00,68.4,53.4,29.97,ESE,113,2.0,4.0,59,0.00,,,0.00,meteohub,2013-09-22 17:22:00,
2013-09-22 12:27:00,68.5,53.6,29.96,SE,135,0.0,4.0,59,0.00,,,0.00,meteohub,2013-09-22 17:27:00,
2013-09-22 12:32:00,68.7,54.3,29.96,South,180,0.0,3.0,60,0.00,,,0.00,meteohub,2013-09-22 17:32:00,
2013-09-22 12:37:00,68.7,53.4,29.96,ESE,113,2.0,2.0,58,0.00,,,0.00,meteohub,2013-09-22 17:37:00,
2013-09-22 12:42:00,68.9,53.1,29.96,ESE,113,3.0,3.0,57,0.00,,,0.00,meteohub,2013-09-22 17:42:00,
2013-09-22 12:47:00,68.9,53.6,29.96,NE,45,0.0,2.0,58,0.00,,,0.00,meteohub,2013-09-22 17:47:00,
2013-09-22 12:52:00,68.9,54.0,29.96,ESE,113,0.0,3.0,59,0.00,,,0.00,meteohub,2013-09-22 17:52:00,
2013-09-22 12:57:00,68.9,53.6,29.96,ESE,113,2.0,3.0,58,0.00,,,0.00,meteohub,2013-09-22 17:57:00,
2013-09-22 13:02:00,69.3,53.8,29.95,SE,135,1.0,2.0,58,0.00,,,0.00,meteohub,2013-09-22 18:02:00,
2013-09-22 13:07:00,69.6,54.7,29.95,ESE,113,0.0,2.0,59,0.00,,,0.00,meteohub,2013-09-22 18:07:00,
2013-09-22 13:12:00,69.4,54.5,29.94,East,90,0.0,2.0,59,0.00,,,0.00,meteohub,2013-09-22 18:12:00,
2013-09-22 13:17:00,69.6,54.1,29.94,ESE,113,0.0,1.0,58,0.00,,,0.00,meteohub,2013-09-22 18:17:00,
2013-09-22 13:22:00,69.6,54.7,29.94,SSE,158,0.0,2.0,59,0.00,,,0.00,meteohub,2013-09-22 18:22:00,
2013-09-22 13:27:00,69.6,54.1,29.94,ENE,68,0.0,2.0,58,0.00,,,0.00,meteohub,2013-09-22 18:27:00,
2013-09-22 13:32:00,69.6,54.7,29.94,East,90,0.0,0.0,59,0.00,,,0.00,meteohub,2013-09-22 18:32:00,
2013-09-22 13:37:00,69.6,54.1,29.94,ENE,68,0.0,0.0,58,0.00,,,0.00,meteohub,2013-09-22 18:37:00,
2013-09-22 13:42:00,70.0,55.0,29.94,ESE,113,0.0,0.0,59,0.00,,,0.00,meteohub,2013-09-22 18:42:00,
2013-09-22 13:47:00,70.0,54.5,29.93,ESE,113,0.0,2.0,58,0.00,,,0.00,meteohub,2013-09-22 18:47:00,
2013-09-22 13:52:00,70.3,54.3,29.93,East,90,0.0,2.0,57,0.00,,,0.00,meteohub,2013-09-22 18:52:00,
2013-09-22 13:57:00,70.7,54.3,29.93,East,90,0.0,2.0,56,0.00,,,0.00,meteohub,2013-09-22 18:57:00,
2013-09-22 14:02:00,70.7,54.7,29.93,East,90,0.0,2.0,57,0.00,,,0.00,meteohub,2013-09-22 19:02:00,
2013-09-22 14:07:00,70.7,54.7,29.92,NNE,23,0.0,2.0,57,0.00,,,0.00,meteohub,2013-09-22 19:07:00,
2013-09-22 14:12:00,70.7,54.7,29.92,West,270,0.0,4.0,57,0.00,,,0.00,meteohub,2013-09-22 19:12:00,
2013-09-22 14:17:00,70.9,54.3,29.92,ESE,113,0.0,4.0,56,0.00,,,0.00,meteohub,2013-09-22 19:17:00,
2013-09-22 14:23:00,70.9,54.0,29.92,SE,135,0.0,4.0,55,0.00,,,0.00,meteohub,2013-09-22 19:23:00,
2013-09-22 14:27:00,71.1,53.6,29.91,ESE,113,3.0,3.0,54,0.00,,,0.00,meteohub,2013-09-22 19:27:00,
2013-09-22 14:32:00,71.4,54.0,29.91,ESE,113,2.0,3.0,54,0.00,,,0.00,meteohub,2013-09-22 19:32:00,
2013-09-22 14:37:00,71.4,53.4,29.91,ESE,113,0.0,3.0,53,0.00,,,0.00,meteohub,2013-09-22 19:37:00,
2013-09-22 14:43:00,71.6,54.1,29.91,ESE,113,0.0,4.0,54,0.00,,,0.00,meteohub,2013-09-22 19:43:00,
2013-09-22 14:48:00,71.8,53.8,29.90,West,270,0.0,4.0,53,0.00,,,0.00,meteohub,2013-09-22 19:48:00,
2013-09-22 14:53:00,71.6,53.6,29.91,ESE,113,3.0,0.0,53,0.00,,,0.00,meteohub,2013-09-22 19:53:00,
2013-09-22 14:58:00,71.8,54.3,29.90,WSW,248,0.0,3.0,54,0.00,,,0.00,meteohub,2013-09-22 19:58:00,
2013-09-22 15:03:00,71.8,54.3,29.90,SE,135,0.0,3.0,54,0.00,,,0.00,meteohub,2013-09-22 20:03:00,
2013-09-22 15:08:00,71.8,54.3,29.91,SE,135,0.0,3.0,54,0.00,,,0.00,meteohub,2013-09-22 20:08:00,
2013-09-22 15:13:00,72.1,53.6,29.91,SE,135,0.0,0.0,52,0.00,,,0.00,meteohub,2013-09-22 20:13:00,
2013-09-22 15:18:00,72.3,53.2,29.91,SE,135,3.0,0.0,51,0.00,,,0.00,meteohub,2013-09-22 20:18:00,
2013-09-22 15:23:00,72.5,54.3,29.91,SE,135,0.0,3.0,53,0.00,,,0.00,meteohub,2013-09-22 20:23:00,
2013-09-22 15:28:00,72.3,53.8,29.90,South,180,0.0,3.0,52,0.00,,,0.00,meteohub,2013-09-22 20:28:00,
2013-09-22 15:33:00,72.7,54.0,29.90,NW,315,0.0,3.0,52,0.00,,,0.00,meteohub,2013-09-22 20:33:00,
2013-09-22 15:38:00,72.9,54.1,29.89,SE,135,0.0,2.0,52,0.00,,,0.00,meteohub,2013-09-22 20:38:00,
2013-09-22 15:43:00,72.9,54.1,29.89,ESE,113,0.0,3.0,52,0.00,,,0.00,meteohub,2013-09-22 20:43:00,
2013-09-22 15:48:00,72.9,54.1,29.89,East,90,0.0,4.0,52,0.00,,,0.00,meteohub,2013-09-22 20:48:00,
2013-09-22 15:53:00,73.0,53.8,29.89,ESE,113,0.0,4.0,51,0.00,,,0.00,meteohub,2013-09-22 20:53:00,
2013-09-22 15:58:00,73.0,53.8,29.89,ESE,113,0.0,2.0,51,0.00,,,0.00,meteohub,2013-09-22 20:58:00,
2013-09-22 16:03:00,73.2,54.0,29.89,ESE,113,2.0,2.0,51,0.00,,,0.00,meteohub,2013-09-22 21:03:00,
2013-09-22 16:08:00,73.4,54.7,29.89,SE,135,0.0,2.0,52,0.00,,,0.00,meteohub,2013-09-22 21:08:00,
2013-09-22 16:13:00,73.4,55.2,29.89,ENE,68,0.0,2.0,53,0.00,,,0.00,meteohub,2013-09-22 21:13:00,
2013-09-22 16:18:00,73.6,55.4,29.89,SSE,158,0.0,2.0,53,0.00,,,0.00,meteohub,2013-09-22 21:18:00,
2013-09-22 16:23:00,73.8,55.6,29.89,SE,135,0.0,3.0,53,0.00,,,0.00,meteohub,2013-09-22 21:23:00,
2013-09-22 16:28:00,73.8,55.6,29.87,SW,225,0.0,3.0,53,0.00,,,0.00,meteohub,2013-09-22 21:28:00,
2013-09-22 16:33:00,74.1,55.9,29.87,ESE,113,2.0,3.0,53,0.00,,,0.00,meteohub,2013-09-22 21:33:00,
2013-09-22 16:38:00,74.1,55.4,29.87,SE,135,0.0,0.0,52,0.00,,,0.00,meteohub,2013-09-22 21:38:00,
2013-09-22 16:43:00,74.3,55.0,29.87,SE,135,1.0,2.0,51,0.00,,,0.00,meteohub,2013-09-22 21:43:00,
2013-09-22 16:48:00,74.3,55.6,29.88,SE,135,0.0,2.0,52,0.00,,,0.00,meteohub,2013-09-22 21:48:00,
2013-09-22 16:53:00,74.3,55.0,29.88,SE,135,0.0,1.0,51,0.00,,,0.00,meteohub,2013-09-22 21:53:00,
2013-09-22 17:00:00,74.1,53.8,29.88,ESE,113,2.0,0.0,49,0.00,,,0.00,meteohub,2013-09-22 22:00:00,
2013-09-22 17:05:00,74.3,55.6,29.88,NE,45,0.0,2.0,52,0.00,,,0.00,meteohub,2013-09-22 22:05:00,
2013-09-22 17:10:00,74.3,55.6,29.88,ESE,113,0.0,2.0,52,0.00,,,0.00,meteohub,2013-09-22 22:10:00,
2013-09-22 17:16:00,74.3,55.0,29.88,East,90,0.0,2.0,51,0.00,,,0.00,meteohub,2013-09-22 22:16:00,
2013-09-22 17:21:00,74.3,55.0,29.88,ESE,113,0.0,2.0,51,0.00,,,0.00,meteohub,2013-09-22 22:21:00,
2013-09-22 17:26:00,74.3,54.0,29.88,ESE,113,0.0,2.0,49,0.00,,,0.00,meteohub,2013-09-22 22:26:00,
2013-09-22 17:31:00,74.1,53.8,29.87,ESE,113,0.0,0.0,49,0.00,,,0.00,meteohub,2013-09-22 22:31:00,
2013-09-22 17:36:00,74.1,53.8,29.87,SE,135,0.0,0.0,49,0.00,,,0.00,meteohub,2013-09-22 22:36:00,
2013-09-22 17:41:00,74.1,53.8,29.87,ESE,113,3.0,0.0,49,0.00,,,0.00,meteohub,2013-09-22 22:41:00,
2013-09-22 17:46:00,74.3,54.0,29.87,ESE,113,0.0,3.0,49,0.00,,,0.00,meteohub,2013-09-22 22:46:00,
2013-09-22 17:51:00,74.3,54.5,29.85,SE,135,0.0,3.0,50,0.00,,,0.00,meteohub,2013-09-22 22:51:00,
2013-09-22 17:56:00,73.9,54.1,29.85,ESE,113,0.0,3.0,50,0.00,,,0.00,meteohub,2013-09-22 22:56:00,
2013-09-22 18:01:00,73.9,54.1,29.85,SSW,203,0.0,2.0,50,0.00,,,0.00,meteohub,2013-09-22 23:01:00,
2013-09-22 18:06:00,73.9,54.1,29.85,SE,135,0.0,2.0,50,0.00,,,0.00,meteohub,2013-09-22 23:06:00,
2013-09-22 18:11:00,73.9,54.1,29.84,SE,135,0.0,2.0,50,0.00,,,0.00,meteohub,2013-09-22 23:11:00,
2013-09-22 18:16:00,73.8,54.5,29.84,ESE,113,0.0,0.0,51,0.00,,,0.00,meteohub,2013-09-22 23:16:00,
2013-09-22 18:21:00,73.4,54.1,29.84,SE,135,0.0,0.0,51,0.00,,,0.00,meteohub,2013-09-22 23:21:00,
2013-09-22 18:26:00,73.6,54.3,29.84,SE,135,0.0,0.0,51,0.00,,,0.00,meteohub,2013-09-22 23:26:00,
2013-09-22 18:31:00,73.2,54.5,29.84,SE,135,0.0,0.0,52,0.00,,,0.00,meteohub,2013-09-22 23:31:00,
2013-09-22 18:36:00,73.2,54.5,29.84,SE,135,0.0,0.0,52,0.00,,,0.00,meteohub,2013-09-22 23:36:00,
2013-09-22 18:41:00,72.9,54.1,29.84,SE,135,0.0,0.0,52,0.00,,,0.00,meteohub,2013-09-22 23:41:00,
2013-09-22 18:46:00,72.9,55.2,29.84,East,90,0.0,0.0,54,0.00,,,0.00,meteohub,2013-09-22 23:46:00,
2013-09-22 18:51:00,72.5,55.9,29.83,SE,135,0.0,0.0,56,0.00,,,0.00,meteohub,2013-09-22 23:51:00,
2013-09-22 18:56:00,72.3,55.8,29.83,East,90,0.0,0.0,56,0.00,,,0.00,meteohub,2013-09-22 23:56:00,
2013-09-22 19:01:00,71.8,55.8,29.83,ENE,68,0.0,0.0,57,0.00,,,0.00,meteohub,2013-09-23 00:01:00,
2013-09-22 19:06:00,71.4,55.9,29.84,ESE,113,0.0,0.0,58,0.00,,,0.00,meteohub,2013-09-23 00:06:00,
2013-09-22 19:11:00,70.9,55.8,29.85,SSE,158,0.0,0.0,59,0.00,,,0.00,meteohub,2013-09-23 00:11:00,
2013-09-22 19:16:00,70.3,56.3,29.85,SE,135,0.0,0.0,61,0.00,,,0.00,meteohub,2013-09-23 00:16:00,
2013-09-22 19:22:00,69.8,55.8,29.85,SE,135,0.0,0.0,61,0.00,,,0.00,meteohub,2013-09-23 00:22:00,
2013-09-22 19:27:00,69.1,55.0,29.86,SE,135,0.0,0.0,61,0.00,,,0.00,meteohub,2013-09-23 00:27:00,
2013-09-22 19:32:00,68.2,55.0,29.89,SSE,158,0.0,0.0,63,0.00,,,0.00,meteohub,2013-09-23 00:32:00,
2013-09-22 19:37:00,67.8,55.2,29.89,SE,135,0.0,0.0,64,0.00,,,0.00,meteohub,2013-09-23 00:37:00,
2013-09-22 19:42:00,67.1,54.5,29.89,SE,135,0.0,0.0,64,0.00,,,0.00,meteohub,2013-09-23 00:42:00,
2013-09-22 19:47:00,66.6,54.5,29.89,SE,135,0.0,0.0,65,0.00,,,0.00,meteohub,2013-09-23 00:47:00,
2013-09-22 19:52:00,66.0,54.3,29.88,South,180,0.0,0.0,66,0.00,,,0.00,meteohub,2013-09-23 00:52:00,
2013-09-22 19:57:00,65.1,54.0,29.89,SE,135,0.0,0.0,67,0.00,,,0.00,meteohub,2013-09-23 00:57:00,
2013-09-22 20:02:00,64.9,53.8,29.89,SSE,158,0.0,0.0,67,0.00,,,0.00,meteohub,2013-09-23 01:02:00,
2013-09-22 20:07:00,64.2,53.4,29.89,SSE,158,0.0,0.0,68,0.00,,,0.00,meteohub,2013-09-23 01:07:00,
2013-09-22 20:12:00,63.7,53.2,29.89,SE,135,0.0,0.0,69,0.00,,,0.00,meteohub,2013-09-23 01:12:00,
2013-09-22 20:17:00,63.3,53.1,29.90,SE,135,0.0,0.0,69,0.00,,,0.00,meteohub,2013-09-23 01:17:00,
2013-09-22 20:22:00,63.0,53.1,29.90,WSW,248,0.0,0.0,70,0.00,,,0.00,meteohub,2013-09-23 01:22:00,
2013-09-22 20:27:00,62.4,52.9,29.90,SW,225,0.0,0.0,71,0.00,,,0.00,meteohub,2013-09-23 01:27:00,
2013-09-22 20:32:00,62.1,52.5,29.90,West,270,0.0,0.0,71,0.00,,,0.00,meteohub,2013-09-23 01:32:00,
2013-09-22 20:37:00,61.7,52.5,29.90,SSE,158,0.0,0.0,72,0.00,,,0.00,meteohub,2013-09-23 01:37:00,
2013-09-22 20:42:00,61.3,52.2,29.90,ESE,113,0.0,0.0,72,0.00,,,0.00,meteohub,2013-09-23 01:42:00,
2013-09-22 20:47:00,61.0,52.3,29.91,South,180,0.0,0.0,73,0.00,,,0.00,meteohub,2013-09-23 01:47:00,
2013-09-22 20:52:00,60.6,52.3,29.91,SSW,203,0.0,0.0,74,0.00,,,0.00,meteohub,2013-09-23 01:52:00,
2013-09-22 20:57:00,60.3,52.0,29.91,SE,135,0.0,0.0,74,0.00,,,0.00,meteohub,2013-09-23 01:57:00,
2013-09-22 21:02:00,60.1,52.2,29.91,East,90,0.0,0.0,75,0.00,,,0.00,meteohub,2013-09-23 02:02:00,
2013-09-22 21:07:00,59.9,52.0,29.91,SE,135,0.0,0.0,75,0.00,,,0.00,meteohub,2013-09-23 02:07:00,
2013-09-22 21:12:00,59.7,52.2,29.93,ESE,113,0.0,0.0,76,0.00,,,0.00,meteohub,2013-09-23 02:12:00,
2013-09-22 21:17:00,59.9,52.3,29.93,SE,135,0.0,0.0,76,0.00,,,0.00,meteohub,2013-09-23 02:17:00,
2013-09-22 21:22:00,59.5,52.0,29.93,SE,135,0.0,0.0,76,0.00,,,0.00,meteohub,2013-09-23 02:22:00,
2013-09-22 21:27:00,59.4,51.8,29.93,South,180,0.0,0.0,76,0.00,,,0.00,meteohub,2013-09-23 02:27:00,
2013-09-22 21:32:00,59.4,52.2,29.93,SE,135,0.0,0.0,77,0.00,,,0.00,meteohub,2013-09-23 02:32:00,
2013-09-22 21:37:00,59.2,52.0,29.93,East,90,0.0,0.0,77,0.00,,,0.00,meteohub,2013-09-23 02:37:00,
2013-09-22 21:42:00,58.8,51.6,29.93,ESE,113,0.0,0.0,77,0.00,,,0.00,meteohub,2013-09-23 02:42:00,
2013-09-22 21:47:00,58.6,51.8,29.94,SE,135,0.0,0.0,78,0.00,,,0.00,meteohub,2013-09-23 02:47:00,
2013-09-22 21:52:00,58.5,51.6,29.94,SE,135,0.0,0.0,78,0.00,,,0.00,meteohub,2013-09-23 02:52:00,
2013-09-22 21:57:00,58.1,51.3,29.94,ESE,113,0.0,0.0,78,0.00,,,0.00,meteohub,2013-09-23 02:57:00,
2013-09-22 22:02:00,57.9,51.1,29.94,SE,135,0.0,0.0,78,0.00,,,0.00,meteohub,2013-09-23 03:02:00,
2013-09-22 22:07:00,57.9,51.4,29.94,SE,135,0.0,0.0,79,0.00,,,0.00,meteohub,2013-09-23 03:07:00,
2013-09-22 22:12:00,57.7,51.3,29.94,ESE,113,0.0,0.0,79,0.00,,,0.00,meteohub,2013-09-23 03:12:00,
2013-09-22 22:17:00,57.7,51.3,29.94,SE,135,0.0,0.0,79,0.00,,,0.00,meteohub,2013-09-23 03:17:00,
2013-09-22 22:22:00,57.4,50.9,29.94,SE,135,0.0,0.0,79,0.00,,,0.00,meteohub,2013-09-23 03:22:00,
2013-09-22 22:27:00,57.2,51.1,29.91,SE,135,0.0,0.0,80,0.00,,,0.00,meteohub,2013-09-23 03:27:00,
2013-09-22 22:32:00,57.0,50.9,29.91,SE,135,0.0,0.0,80,0.00,,,0.00,meteohub,2013-09-23 03:32:00,
2013-09-22 22:37:00,56.8,50.7,29.92,SE,135,0.0,0.0,80,0.00,,,0.00,meteohub,2013-09-23 03:37:00,
2013-09-22 22:42:00,56.7,50.5,29.92,SE,135,0.0,0.0,80,0.00,,,0.00,meteohub,2013-09-23 03:42:00,
2013-09-22 22:47:00,56.7,50.9,29.92,ESE,113,0.0,0.0,81,0.00,,,0.00,meteohub,2013-09-23 03:47:00,
2013-09-22 22:52:00,56.5,50.7,29.90,SE,135,0.0,0.0,81,0.00,,,0.00,meteohub,2013-09-23 03:52:00,
2013-09-22 22:57:00,56.3,50.5,29.90,SE,135,0.0,0.0,81,0.00,,,0.00,meteohub,2013-09-23 03:57:00,
2013-09-22 23:01:00,56.1,50.4,29.90,ESE,113,0.0,0.0,81,0.00,,,0.00,meteohub,2013-09-23 04:01:00,
2013-09-22 23:06:00,55.9,50.2,29.90,SSW,203,0.0,0.0,81,0.00,,,0.00,meteohub,2013-09-23 04:06:00,
2013-09-22 23:11:00,55.8,50.4,29.89,WSW,248,0.0,0.0,82,0.00,,,0.00,meteohub,2013-09-23 04:11:00,
2013-09-22 23:16:00,55.6,50.2,29.89,WSW,248,0.0,0.0,82,0.00,,,0.00,meteohub,2013-09-23 04:16:00,
2013-09-22 23:21:00,55.6,50.2,29.89,SSE,158,0.0,0.0,82,0.00,,,0.00,meteohub,2013-09-23 04:21:00,
2013-09-22 23:26:00,55.2,49.8,29.90,SSE,158,0.0,0.0,82,0.00,,,0.00,meteohub,2013-09-23 04:26:00,
2013-09-22 23:31:00,55.0,49.6,29.90,SSE,158,0.0,0.0,82,0.00,,,0.00,meteohub,2013-09-23 04:31:00,
2013-09-22 23:37:00,54.9,49.5,29.90,South,180,0.0,0.0,82,0.00,,,0.00,meteohub,2013-09-23 04:37:00,
2013-09-22 23:42:00,54.9,49.5,29.90,ENE,68,0.0,0.0,82,0.00,,,0.00,meteohub,2013-09-23 04:42:00,
2013-09-22 23:47:00,54.9,49.8,29.90,SSE,158,0.0,0.0,83,0.00,,,0.00,meteohub,2013-09-23 04:47:00,
2013-09-22 23:52:00,54.5,49.5,29.91,WSW,248,0.0,0.0,83,0.00,,,0.00,meteohub,2013-09-23 04:52:00,
2013-09-22 23:57:00,54.3,49.3,29.91,SE,135,0.0,0.0,83,0.00,,,0.00,meteohub,2013-09-23 04:57:00,